Weather History for Kaiser, MO

Change the Weather History Date:

Sunday, March 3, 2013

  Actual Average Record
Temperature  
Mean Temperature 30 °F -  
Max Temperature 44 °F 48 °F 68 °F (2011)
Min Temperature 15 °F 28 °F 1 °F (2014)
Degree Days  
Heating Degree Days 36    
Moisture  
Dew Point 16 °F    
Average Humidity 57    
Maximum Humidity 93    
Minimum Humidity 31    
Precipitation  
Precipitation 0.00 in - - ()
Sea Level Pressure  
Sea Level Pressure 30.07 in    
Wind  
Wind Speed 4 mph (SE)    
Max Wind Speed 10 mph    
Max Gust Speed 16 mph    
Visibility 10 miles    
Events      
Averages and records for this station are not official NWS values.
T = Trace of Precipitation, MM = Missing Value Source: NWS Daily Summary

Daily Weather History Graph

Daily Weather History Graph

Search for Another Location

Airport:

Trip Planner

Search our weather history database for the weather conditions in past years. The results will help you decide how hot, cold, wet, or windy it might be!

Date:

Astronomy

Mar. 03, 2013 Rise Set
Actual Time 6:38 AM CST 6:05 PM CST
Civil Twilight 6:12 AM CST 6:32 PM CST
Nautical Twilight 5:41 AM CST 7:02 PM CST
Astronomical Twilight 5:11 AM CST 7:33 PM CST
Moon No Moon Rise 10:00 AM CST (3/3)
Length of Visible Light 12h 19m
Length of Day
11h 27m
Waning Gibbous, 63% of the Moon is Illuminated
Mar 3
Waning Gibbous
Mar 4
Last Quarter
Mar 11
New
Mar 19
First Quarter
Mar 27
Full

Hourly Weather History & Observations

Time (CST) Temp. Windchill Dew Point Humidity Pressure Visibility Wind Dir Wind Speed Gust Speed Precip Events Conditions
12:15 AM 15.8 °F - 10.4 °F 79% 30.22 in 10.0 mi Calm Calm - N/A   Clear
12:35 AM 17.6 °F - 14.0 °F 86% 30.23 in 10.0 mi Calm Calm - N/A   Clear
12:55 AM 15.8 °F 10.2 °F 12.2 °F 86% 30.23 in 8.0 mi East 3.5 mph - N/A   Clear
1:15 AM 15.8 °F - 12.2 °F 86% 30.23 in 9.0 mi Calm Calm - N/A   Mostly Cloudy
1:35 AM 17.6 °F - 12.2 °F 79% 30.23 in 10.0 mi Calm Calm - N/A   Overcast
1:55 AM 17.6 °F - 12.2 °F 79% 30.22 in 10.0 mi Calm Calm - N/A   Overcast
2:15 AM 17.6 °F - 14.0 °F 86% 30.22 in 10.0 mi Calm Calm - N/A   Overcast
2:35 AM 19.4 °F - 15.8 °F 86% 30.21 in 10.0 mi Calm Calm - N/A   Overcast
2:55 AM 19.4 °F - 12.2 °F 74% 30.20 in 10.0 mi Calm Calm - N/A   Mostly Cloudy
3:15 AM 17.6 °F 12.3 °F 12.2 °F 79% 30.18 in 10.0 mi SE 3.5 mph - N/A   Partly Cloudy
3:35 AM 15.8 °F 10.2 °F 12.2 °F 86% 30.18 in 10.0 mi ESE 3.5 mph - N/A   Clear
3:55 AM 15.8 °F 10.2 °F 12.2 °F 86% 30.17 in 10.0 mi SE 3.5 mph - N/A   Clear
4:15 AM 15.8 °F - 14.0 °F 93% 30.18 in 10.0 mi Calm Calm - N/A   Clear
4:35 AM 15.8 °F - 10.4 °F 79% 30.18 in 10.0 mi Calm Calm - N/A   Clear
4:55 AM 15.8 °F - 12.2 °F 86% 30.17 in 10.0 mi Calm Calm - N/A   Clear
5:15 AM 15.8 °F - 10.4 °F 79% 30.17 in 10.0 mi Calm Calm - N/A   Clear
5:35 AM 15.8 °F - 10.4 °F 79% 30.17 in 10.0 mi Calm Calm - N/A   Clear
5:55 AM 15.8 °F - 12.2 °F 86% 30.17 in 10.0 mi Calm Calm - N/A   Clear
6:15 AM 15.8 °F 10.2 °F 12.2 °F 86% 30.16 in 10.0 mi SE 3.5 mph - N/A   Clear
6:35 AM 15.8 °F 8.6 °F 14.0 °F 93% 30.16 in 8.0 mi SE 4.6 mph - N/A   Clear
6:55 AM 15.8 °F 8.6 °F 12.2 °F 86% 30.16 in 7.0 mi SSE 4.6 mph - N/A   Clear
7:15 AM 17.6 °F 10.7 °F 14.0 °F 86% 30.17 in 8.0 mi SSE 4.6 mph - N/A   Clear
7:35 AM 19.4 °F 12.8 °F 14.0 °F 80% 30.16 in 9.0 mi South 4.6 mph - N/A   Clear
7:55 AM 21.2 °F 14.9 °F 15.8 °F 80% 30.17 in 10.0 mi SSE 4.6 mph - N/A   Scattered Clouds
8:15 AM 23.0 °F 17.0 °F 15.8 °F 74% 30.16 in 10.0 mi SSE 4.6 mph - N/A   Scattered Clouds
8:35 AM 24.8 °F 17.9 °F 15.8 °F 69% 30.15 in 10.0 mi SSE 5.8 mph - N/A   Scattered Clouds
8:55 AM 26.6 °F 22.6 °F 17.6 °F 69% 30.16 in 10.0 mi SSE 3.5 mph - N/A   Mostly Cloudy
9:15 AM 26.6 °F 20.0 °F 17.6 °F 69% 30.15 in 10.0 mi SSE 5.8 mph - N/A   Scattered Clouds
9:35 AM 30.2 °F 24.3 °F 17.6 °F 60% 30.15 in 10.0 mi SE 5.8 mph - N/A   Clear
9:55 AM 30.2 °F 26.7 °F 17.6 °F 60% 30.15 in 10.0 mi SSE 3.5 mph - N/A   Clear
10:15 AM 33.8 °F 29.6 °F 17.6 °F 52% 30.14 in 10.0 mi South 4.6 mph - N/A   Clear
10:35 AM 33.8 °F 30.8 °F 17.6 °F 52% 30.13 in 10.0 mi SE 3.5 mph - N/A   Clear
10:55 AM 35.6 °F 29.2 °F 15.8 °F 44% 30.12 in 10.0 mi SSE 8.1 mph - N/A   Mostly Cloudy
11:15 AM 37.4 °F 33.8 °F 14.0 °F 38% 30.12 in 10.0 mi South 4.6 mph - N/A   Overcast
11:35 AM 37.4 °F 32.1 °F 15.8 °F 41% 30.11 in 10.0 mi South 6.9 mph - N/A   Overcast
11:55 AM 37.4 °F 32.1 °F 17.6 °F 45% 30.11 in 10.0 mi South 6.9 mph - N/A   Overcast
12:15 PM 39.2 °F 33.6 °F 15.8 °F 39% 30.09 in 10.0 mi SSE 8.1 mph - N/A   Overcast
12:35 PM 39.2 °F 33.6 °F 15.8 °F 39% 30.07 in 10.0 mi SSE 8.1 mph - N/A   Overcast
12:55 PM 39.2 °F 34.2 °F 15.8 °F 39% 30.06 in 10.0 mi SSE 6.9 mph - N/A   Overcast
1:15 PM 39.2 °F 34.2 °F 17.6 °F 42% 30.04 in 10.0 mi SSE 6.9 mph - N/A   Overcast
1:35 PM 41.0 °F 35.2 °F 15.8 °F 36% 30.03 in 10.0 mi SE 9.2 mph - N/A   Overcast
1:55 PM 42.8 °F 38.6 °F 14.0 °F 31% 30.02 in 10.0 mi South 6.9 mph - N/A   Overcast
2:15 PM 42.8 °F 38.0 °F 15.8 °F 34% 30.01 in 10.0 mi SE 8.1 mph - N/A   Overcast
2:35 PM 42.8 °F 37.5 °F 15.8 °F 34% 30.00 in 10.0 mi SSE 9.2 mph - N/A   Overcast
2:55 PM 42.8 °F 37.0 °F 15.8 °F 34% 29.99 in 10.0 mi SSE 10.4 mph - N/A   Overcast
3:15 PM 42.8 °F 38.0 °F 15.8 °F 34% 29.98 in 10.0 mi SSE 8.1 mph - N/A   Overcast
3:35 PM 44.6 °F 40.2 °F 15.8 °F 31% 29.98 in 10.0 mi SE 8.1 mph - N/A   Overcast
3:55 PM 44.6 °F 39.7 °F 17.6 °F 34% 29.96 in 10.0 mi ESE 9.2 mph - N/A   Mostly Cloudy
4:15 PM 44.6 °F 40.2 °F 17.6 °F 34% 29.96 in 10.0 mi SE 8.1 mph 16.1 mph N/A   Overcast
4:35 PM 44.6 °F 40.2 °F 15.8 °F 31% 29.95 in 10.0 mi SE 8.1 mph - N/A   Scattered Clouds
4:55 PM 44.6 °F 40.7 °F 17.6 °F 34% 29.95 in 10.0 mi SE 6.9 mph 16.1 mph N/A   Unknown
5:15 PM 44.6 °F 40.7 °F 17.6 °F 34% 29.95 in 10.0 mi SE 6.9 mph - N/A   Partly Cloudy
5:35 PM 42.8 °F 38.6 °F 17.6 °F 36% 29.95 in 10.0 mi ESE 6.9 mph - N/A   Mostly Cloudy
5:55 PM 42.8 °F 38.6 °F 17.6 °F 36% 29.95 in 10.0 mi ESE 6.9 mph - N/A   Mostly Cloudy
6:35 PM 42.8 °F 40.1 °F 19.4 °F 39% 29.96 in 10.0 mi ESE 4.6 mph - N/A   Mostly Cloudy
6:55 PM 41.0 °F 37.1 °F 19.4 °F 42% 29.96 in 10.0 mi ESE 5.8 mph - N/A   Scattered Clouds
7:15 PM 41.0 °F 36.4 °F 19.4 °F 42% 29.95 in 10.0 mi ESE 6.9 mph - N/A   Clear
7:35 PM 39.2 °F 34.2 °F 21.2 °F 49% 29.94 in 10.0 mi ESE 6.9 mph - N/A   Clear
7:55 PM 41.0 °F 36.4 °F 19.4 °F 42% 29.95 in 10.0 mi SE 6.9 mph - N/A   Clear
8:15 PM 41.0 °F 37.1 °F 19.4 °F 42% 29.94 in 10.0 mi ESE 5.8 mph - N/A   Clear
8:35 PM 41.0 °F 36.4 °F 19.4 °F 42% 29.94 in 10.0 mi SE 6.9 mph - N/A   Clear
8:55 PM 41.0 °F 35.8 °F 19.4 °F 42% 29.94 in 10.0 mi SE 8.1 mph 16.1 mph N/A   Clear
9:15 PM 41.0 °F 36.4 °F 17.6 °F 39% 29.94 in 10.0 mi SE 6.9 mph - N/A   Mostly Cloudy
9:35 PM 39.2 °F 33.0 °F 19.4 °F 45% 29.93 in 10.0 mi SE 9.2 mph - N/A   Partly Cloudy
9:55 PM 39.2 °F 33.0 °F 17.6 °F 42% 29.93 in 10.0 mi SE 9.2 mph - N/A   Clear
10:15 PM 39.2 °F 34.2 °F 19.4 °F 45% 29.93 in 10.0 mi SSE 6.9 mph - N/A   Clear
10:35 PM 39.2 °F 33.6 °F 21.2 °F 49% 29.94 in 10.0 mi SE 8.1 mph - N/A   Clear
10:55 PM 39.2 °F 33.6 °F 21.2 °F 49% 29.93 in 10.0 mi SE 8.1 mph - N/A   Clear
11:15 PM 39.2 °F 33.0 °F 21.2 °F 49% 29.93 in 10.0 mi SSE 9.2 mph 16.1 mph N/A   Scattered Clouds
11:35 PM 37.4 °F 30.3 °F 23.0 °F 56% 29.92 in 10.0 mi SE 10.4 mph - N/A   Mostly Cloudy
11:55 PM 37.4 °F 32.1 °F 23.0 °F 56% 29.91 in 10.0 mi SE 6.9 mph - N/A   Scattered Clouds